This is the latest recevied weather packets stored in our database for station/object WC4PEM-12. If no packets are shown the sender has not sent any weather packets the latest 10 day(s).
| Time | Temp. | Humidity | Pressure | Rain* | Wind** | Luminosity | Snow |
|---|---|---|---|---|---|---|---|
| 1777418513 | 27.78° C | 62% | 1017.4 hPa | 0 mm | - | - | - |
| 1777418296 | 27.78° C | 62% | 1017.4 hPa | 0 mm | - | - | - |
| 1777417996 | 28.33° C | 61% | 1017.2 hPa | 0 mm | - | - | - |
| 1777417813 | 28.89° C | 60% | 1017.1 hPa | 0 mm | - | - | - |
| 1777417696 | 28.33° C | 60% | 1017.1 hPa | 0 mm | - | - | - |
| 1777417396 | 28.89° C | 60% | 1017.1 hPa | 0 mm | - | - | - |
| 1777417325 | 28.89° C | 59% | 1017.2 hPa | 0 mm | - | - | - |
| 1777417096 | 28.89° C | 59% | 1017.2 hPa | 0 mm | - | - | - |
| 1777417083 | 29.44° C | 59% | 1017.2 hPa | 0 mm | - | - | - |
| 1777416796 | 29.44° C | 59% | 1017.2 hPa | 0 mm | - | - | - |
| 1777416496 | 29.44° C | 57% | 1017.1 hPa | 0 mm | - | - | - |
| 1777416196 | 30° C | 57% | 1016.9 hPa | 0 mm | - | - | - |
| 1777415896 | 30° C | 56% | 1016.9 hPa | 0 mm | - | - | - |
| 1777415596 | 30° C | 55% | 1016.9 hPa | 0 mm | - | - | - |
| 1777415409 | 31.11° C | 54% | 1017 hPa | 0 mm | - | - | - |
| 1777415389 | 30.56° C | 55% | 1017 hPa | 0 mm | - | - | - |
| 1777415296 | 30.56° C | 55% | 1017 hPa | 0 mm | - | - | - |
| 1777415132 | 31.11° C | 54% | 1017 hPa | 0 mm | - | - | - |
| 1777414996 | 31.11° C | 54% | 1017 hPa | 0 mm | - | - | - |
| 1777414808 | 31.11° C | 53% | 1016.7 hPa | 0 mm | - | - | - |
| 1777414696 | 31.11° C | 53% | 1016.7 hPa | 0 mm | - | - | - |
| 1777414396 | 31.11° C | 52% | 1016.7 hPa | 0 mm | - | - | - |
| 1777414096 | 31.11° C | 52% | 1016.7 hPa | 0 mm | - | - | - |
| 1777413796 | 31.67° C | 53% | 1016.7 hPa | 0 mm | - | - | - |
| 1777413716 | 31.67° C | 52% | 1016.7 hPa | 0 mm | - | - | - |
* Rain latest hour (hover to see other rain measurements)
** Current wind speed in m/s (hover to see current wind gust speed)